Regional Weather Roundup
Issued by NWS Nashville, TN

Home | Current Version | Previous Version | Text Only | Print | Product List | Glossary On
Versions: 1 2 3 4 5 6 7 8 9 10 11 12 13 14 15 16 17 18 19 20 21 22 23 24 25 26 27 28 29 30 31 32 33 34 35 36 37 38 39 40 41 42 43 44 45 46 47 48 49 50
000
ASUS44 KOHX 011315
RWROHX
MIDDLE TENNESSEE HOURLY WEATHER ROUNDUP
NATIONAL WEATHER SERVICE NASHVILLE TN
700 AM CST SUN MAR 01 2015

NOTE: "FAIR" INDICATES FEW OR NO CLOUDS BELOW 12,000 FEET WITH
NO SIGNIFICANT WEATHER AND/OR OBSTRUCTIONS TO VISIBILITY.

* THESE REPORTS ARE NOT UNDER NWS QUALITY CONTROL AND MAY NOT
  REPORT WEATHER SUCH AS PRECIPITATION AND FOG.


TNZ005>011-023>034-057-059-062>066-078-080-011400
...NORTHERN MIDDLE TENNESSEE...

CITY           SKY/WX    TMP DP  RH WIND       PRES   REMARKS
CLARKSVILLE    CLOUDY    36  30  79 CALM      30.36R
CROSSVILLE     CLOUDY    43  37  79 S8        30.40S
GALLATIN         N/A     43  34  70 CALM      30.38S
DICKSON        CLOUDY    36  28  75 CALM      30.33S
LEBANON        CLOUDY    45  34  65 SE5       30.36S
NASHVILLE      CLOUDY    45  34  65 SE6       30.37F
WEST NASHVILLE CLOUDY    37  30  75 CALM      30.37F
PORTLAND       CLOUDY    43  30  61 S8        30.35S
SMYRNA         CLOUDY    44  35  70 SE5       30.39F
SPARTA         MOCLDY    45  36  70 S9        30.37S
$$
TNZ056-058-060-061-075>077-079-093>097-011400
...SOUTHERN MIDDLE TENNESSEE...

CITY           SKY/WX    TMP DP  RH WIND       PRES   REMARKS
COLUMBIA       CLOUDY    48  45  87 S5        30.34S
LEWISBURG      CLOUDY    47  35  63 S5        30.37S
MCMINNVILLE    CLOUDY    45  37  76 CALM      30.39R
MURFREESBORO   CLOUDY    46  35  65 SE3       30.38R
SHELBYVILLE    CLOUDY    46  39  76 S8        30.38F
TULLAHOMA      CLOUDY    45  36  70 S7        30.38S
WINCHESTER     CLOUDY    45  37  76 SE7       30.40R
$$


...KEY TO REMARKS...
VSB - VISIBILITY IN MILES
WCI - WIND CHILL INDEX
HX  - HEAT INDEX




USA.gov is the U.S. government's official web portal to all federal, state and local government web resources and services.